Time,TemperatureF,DewpointF,PressureIn,WindDirection,WindDirectionDegrees,WindSpeedMPH,WindSpeedGustMPH,Humidity,HourlyPrecipIn,Conditions,Clouds,dailyrainin,SolarRadiationWatts/m^2,SoftwareType,DateUTC
2013-02-01 00:01:00,22.5,13.9,29.87,NW,307,4.0,4.0,69,0.00,,,0.18,0,Wunderground v.1.15,2013-02-01 05:01:00,
2013-02-01 00:03:00,22.5,13.9,29.87,NNW,332,4.0,8.0,69,0.00,,,0.18,0,Wunderground v.1.15,2013-02-01 05:03:00,
2013-02-01 00:06:00,22.4,13.8,29.87,North,350,3.0,8.0,69,0.00,,,0.00,0,Wunderground v.1.15,2013-02-01 05:06:00,
2013-02-01 00:10:00,22.3,13.7,29.87,NW,322,4.0,4.0,69,0.00,,,0.00,0,Wunderground v.1.15,2013-02-01 05:10:00,
2013-02-01 00:16:00,22.3,14.0,29.87,WNW,302,6.0,8.0,70,0.00,,,0.00,0,Wunderground v.1.15,2013-02-01 05:16:00,
2013-02-01 00:22:00,22.1,13.8,29.87,West,263,5.0,8.0,70,0.00,,,0.00,0,Wunderground v.1.15,2013-02-01 05:22:00,
2013-02-01 00:28:00,22.0,14.0,29.87,NW,319,4.0,8.0,71,0.00,,,0.00,0,Wunderground v.1.15,2013-02-01 05:28:00,
2013-02-01 00:34:00,21.7,13.7,29.87,SW,236,3.0,12.0,71,0.00,,,0.00,0,Wunderground v.1.15,2013-02-01 05:34:00,
2013-02-01 00:40:00,21.6,14.0,29.87,WNW,282,3.0,3.0,72,0.00,,,0.00,0,Wunderground v.1.15,2013-02-01 05:40:00,
2013-02-01 00:46:00,21.5,13.9,29.87,West,275,3.0,12.0,72,0.00,,,0.00,0,Wunderground v.1.15,2013-02-01 05:46:00,
2013-02-01 00:52:00,21.3,14.0,29.87,WNW,283,4.0,7.0,73,0.00,,,0.00,0,Wunderground v.1.15,2013-02-01 05:52:00,
2013-02-01 00:58:00,21.3,13.7,29.86,WNW,301,4.0,12.0,72,0.00,,,0.00,0,Wunderground v.1.15,2013-02-01 05:58:00,
2013-02-01 01:04:00,21.2,13.6,29.85,West,270,4.0,12.0,72,0.00,,,0.00,0,Wunderground v.1.15,2013-02-01 06:04:00,
2013-02-01 01:10:00,21.0,13.7,29.85,NW,316,3.0,3.0,73,0.00,,,0.00,0,Wunderground v.1.15,2013-02-01 06:10:00,
2013-02-01 01:16:00,20.8,13.5,29.84,WNW,283,2.0,12.0,73,0.00,,,0.00,0,Wunderground v.1.15,2013-02-01 06:16:00,
2013-02-01 01:22:00,20.6,13.6,29.84,West,281,3.0,12.0,74,0.00,,,0.00,0,Wunderground v.1.15,2013-02-01 06:22:00,
2013-02-01 01:28:00,20.5,13.5,29.85,West,272,3.0,12.0,74,0.00,,,0.00,0,Wunderground v.1.15,2013-02-01 06:28:00,
2013-02-01 01:34:00,20.4,13.7,29.85,SSW,206,3.0,12.0,75,0.00,,,0.00,0,Wunderground v.1.15,2013-02-01 06:34:00,
2013-02-01 01:40:00,20.1,13.4,29.86,SW,219,2.0,2.0,75,0.00,,,0.00,0,Wunderground v.1.15,2013-02-01 06:40:00,
2013-02-01 01:46:00,19.9,13.3,29.86,NW,309,1.0,12.0,75,0.00,,,0.00,0,Wunderground v.1.15,2013-02-01 06:46:00,
2013-02-01 01:52:00,19.7,13.4,29.86,WSW,238,1.0,12.0,76,0.00,,,0.00,0,Wunderground v.1.15,2013-02-01 06:52:00,
2013-02-01 01:58:00,19.6,13.3,29.87,WNW,286,2.0,12.0,76,0.00,,,0.00,0,Wunderground v.1.15,2013-02-01 06:58:00,
2013-02-01 02:04:00,19.8,13.5,29.87,West,281,2.0,12.0,76,0.00,,,0.00,0,Wunderground v.1.15,2013-02-01 07:04:00,
2013-02-01 02:10:00,20.0,13.3,29.87,NW,311,2.0,12.0,75,0.00,,,0.00,0,Wunderground v.1.15,2013-02-01 07:10:00,
2013-02-01 02:16:00,20.3,13.9,29.87,WSW,242,2.0,12.0,76,0.00,,,0.00,0,Wunderground v.1.15,2013-02-01 07:16:00,
2013-02-01 02:22:00,20.3,13.9,29.87,WSW,238,2.0,12.0,76,0.00,,,0.00,0,Wunderground v.1.15,2013-02-01 07:22:00,
2013-02-01 02:28:00,20.3,13.9,29.87,West,273,2.0,12.0,76,0.00,,,0.00,0,Wunderground v.1.15,2013-02-01 07:28:00,
2013-02-01 02:34:00,20.2,13.5,29.87,WNW,292,2.0,12.0,75,0.00,,,0.00,0,Wunderground v.1.15,2013-02-01 07:34:00,
2013-02-01 02:40:00,20.2,13.2,29.87,SW,232,3.0,12.0,74,0.00,,,0.00,0,Wunderground v.1.15,2013-02-01 07:40:00,
2013-02-01 02:46:00,20.3,13.3,29.87,WNW,286,3.0,12.0,74,0.00,,,0.00,0,Wunderground v.1.15,2013-02-01 07:46:00,
2013-02-01 02:52:00,20.3,12.7,29.88,NNW,330,4.0,12.0,72,0.00,,,0.00,0,Wunderground v.1.15,2013-02-01 07:52:00,
2013-02-01 02:58:00,20.4,12.5,29.88,SW,235,5.0,12.0,71,0.00,,,0.00,0,Wunderground v.1.15,2013-02-01 07:58:00,
2013-02-01 03:04:00,20.3,12.1,29.88,West,280,5.0,12.0,70,0.00,,,0.00,0,Wunderground v.1.15,2013-02-01 08:04:00,
2013-02-01 03:10:00,20.3,12.4,29.88,West,275,4.0,12.0,71,0.00,,,0.00,0,Wunderground v.1.15,2013-02-01 08:10:00,
2013-02-01 03:16:00,20.2,11.7,29.88,West,277,5.0,12.0,69,0.00,,,0.00,0,Wunderground v.1.15,2013-02-01 08:16:00,
2013-02-01 03:22:00,20.1,11.2,29.89,West,281,5.0,7.0,68,0.00,,,0.00,0,Wunderground v.1.15,2013-02-01 08:22:00,
2013-02-01 03:28:00,19.9,10.0,29.89,SW,236,6.0,12.0,65,0.00,,,0.00,0,Wunderground v.1.15,2013-02-01 08:28:00,
2013-02-01 03:34:00,19.7,10.2,29.89,WNW,299,6.0,12.0,66,0.00,,,0.00,0,Wunderground v.1.15,2013-02-01 08:34:00,
2013-02-01 03:40:00,19.6,10.1,29.89,West,271,4.0,4.0,66,0.00,,,0.00,0,Wunderground v.1.15,2013-02-01 08:40:00,
2013-02-01 03:46:00,19.4,10.2,29.89,West,263,4.0,12.0,67,0.00,,,0.00,0,Wunderground v.1.15,2013-02-01 08:46:00,
2013-02-01 03:52:00,19.3,10.1,29.89,WNW,282,4.0,12.0,67,0.00,,,0.00,0,Wunderground v.1.15,2013-02-01 08:52:00,
2013-02-01 03:58:00,19.1,9.9,29.90,WSW,244,5.0,12.0,67,0.00,,,0.00,0,Wunderground v.1.15,2013-02-01 08:58:00,
2013-02-01 04:04:00,19.1,9.9,29.90,West,278,4.0,12.0,67,0.00,,,0.00,0,Wunderground v.1.15,2013-02-01 09:04:00,
2013-02-01 04:10:00,19.0,10.2,29.91,WNW,284,3.0,12.0,68,0.00,,,0.00,0,Wunderground v.1.15,2013-02-01 09:10:00,
2013-02-01 04:16:00,18.9,9.7,29.91,WSW,258,3.0,12.0,67,0.00,,,0.00,0,Wunderground v.1.15,2013-02-01 09:16:00,
2013-02-01 04:22:00,18.9,9.7,29.91,WSW,239,3.0,12.0,67,0.00,,,0.00,0,Wunderground v.1.15,2013-02-01 09:22:00,
2013-02-01 04:28:00,18.9,9.7,29.91,WSW,244,4.0,12.0,67,0.00,,,0.00,0,Wunderground v.1.15,2013-02-01 09:28:00,
2013-02-01 04:34:00,18.8,10.0,29.92,WSW,250,3.0,12.0,68,0.00,,,0.00,0,Wunderground v.1.15,2013-02-01 09:34:00,
2013-02-01 04:40:00,18.8,10.0,29.92,WNW,297,2.0,12.0,68,0.00,,,0.00,0,Wunderground v.1.15,2013-02-01 09:40:00,
2013-02-01 04:46:00,18.8,10.0,29.92,NW,312,3.0,12.0,68,0.00,,,0.00,0,Wunderground v.1.15,2013-02-01 09:46:00,
2013-02-01 04:52:00,18.8,10.3,29.92,West,270,3.0,12.0,69,0.00,,,0.00,0,Wunderground v.1.15,2013-02-01 09:52:00,
2013-02-01 04:58:00,18.8,10.0,29.92,West,263,3.0,12.0,68,0.00,,,0.00,0,Wunderground v.1.15,2013-02-01 09:58:00,
2013-02-01 05:04:00,18.8,10.0,29.93,WNW,293,5.0,12.0,68,0.00,,,0.00,0,Wunderground v.1.15,2013-02-01 10:04:00,
2013-02-01 05:10:00,18.8,10.0,29.93,WNW,292,4.0,4.0,68,0.00,,,0.00,0,Wunderground v.1.15,2013-02-01 10:10:00,
2013-02-01 05:16:00,18.8,10.0,29.94,WSW,252,3.0,12.0,68,0.00,,,0.00,0,Wunderground v.1.15,2013-02-01 10:16:00,
2013-02-01 05:22:00,18.8,10.0,29.94,West,270,6.0,6.0,68,0.00,,,0.00,0,Wunderground v.1.15,2013-02-01 10:22:00,
2013-02-01 05:28:00,18.8,10.0,29.95,WNW,293,4.0,12.0,68,0.00,,,0.00,0,Wunderground v.1.15,2013-02-01 10:28:00,
2013-02-01 05:34:00,18.5,10.3,29.95,WNW,299,4.0,12.0,70,0.00,,,0.00,0,Wunderground v.1.15,2013-02-01 10:34:00,
2013-02-01 05:40:00,18.4,10.9,29.97,WNW,298,5.0,5.0,72,0.00,,,0.00,0,Wunderground v.1.15,2013-02-01 10:40:00,
2013-02-01 05:46:00,18.0,11.7,29.97,NW,317,5.0,12.0,76,0.00,,,0.00,0,Wunderground v.1.15,2013-02-01 10:46:00,
2013-02-01 05:52:00,17.6,12.2,29.98,NW,321,5.0,5.0,79,0.00,,,0.00,0,Wunderground v.1.15,2013-02-01 10:52:00,
2013-02-01 05:58:00,17.4,12.6,29.98,WSW,246,4.0,12.0,81,0.00,,,0.00,0,Wunderground v.1.15,2013-02-01 10:58:00,
2013-02-01 06:04:00,17.2,12.9,29.98,NW,307,2.0,12.0,83,0.00,,,0.00,0,Wunderground v.1.15,2013-02-01 11:04:00,
2013-02-01 06:10:00,17.1,12.8,29.99,WNW,291,2.0,12.0,83,0.00,,,0.00,0,Wunderground v.1.15,2013-02-01 11:10:00,
2013-02-01 06:16:00,17.0,12.7,29.99,WNW,292,3.0,12.0,83,0.00,,,0.00,0,Wunderground v.1.15,2013-02-01 11:16:00,
2013-02-01 06:22:00,17.0,12.7,30.00,SSW,199,4.0,12.0,83,0.00,,,0.00,0,Wunderground v.1.15,2013-02-01 11:22:00,
2013-02-01 06:28:00,17.1,12.6,30.00,WSW,242,4.0,12.0,82,0.00,,,0.00,0,Wunderground v.1.15,2013-02-01 11:28:00,
2013-02-01 06:34:00,17.1,12.6,30.00,NW,319,5.0,12.0,82,0.00,,,0.00,0,Wunderground v.1.15,2013-02-01 11:34:00,
2013-02-01 06:40:00,17.0,12.5,30.01,West,260,5.0,12.0,82,0.00,,,0.00,0,Wunderground v.1.15,2013-02-01 11:40:00,
2013-02-01 06:46:00,17.1,12.0,30.01,WSW,243,4.0,12.0,80,0.00,,,0.00,0,Wunderground v.1.15,2013-02-01 11:46:00,
2013-02-01 06:52:00,17.1,11.7,30.01,WNW,290,4.0,12.0,79,0.00,,,0.00,0,Wunderground v.1.15,2013-02-01 11:52:00,
2013-02-01 06:58:00,17.1,10.8,30.02,West,260,5.0,12.0,76,0.00,,,0.00,0,Wunderground v.1.15,2013-02-01 11:58:00,
2013-02-01 07:04:00,17.0,10.7,30.02,WSW,255,6.0,12.0,76,0.00,,,0.00,0,Wunderground v.1.15,2013-02-01 12:04:00,
2013-02-01 07:10:00,17.0,10.7,30.02,West,277,5.0,12.0,76,0.00,,,0.00,0,Wunderground v.1.15,2013-02-01 12:10:00,
2013-02-01 07:16:00,17.0,10.7,30.03,West,281,5.0,12.0,76,0.00,,,0.00,0,Wunderground v.1.15,2013-02-01 12:16:00,
2013-02-01 07:22:00,16.9,10.3,30.03,NW,309,4.0,12.0,75,0.00,,,0.00,0,Wunderground v.1.15,2013-02-01 12:22:00,
2013-02-01 07:28:00,16.8,9.9,30.03,NW,305,4.0,12.0,74,0.00,,,0.00,5,Wunderground v.1.15,2013-02-01 12:28:00,
2013-02-01 07:34:00,16.8,9.9,30.04,SW,223,5.0,13.0,74,0.00,,,0.00,9,Wunderground v.1.15,2013-02-01 12:34:00,
2013-02-01 07:40:00,16.8,9.9,30.04,WSW,252,5.0,12.0,74,0.00,,,0.00,14,Wunderground v.1.15,2013-02-01 12:40:00,
2013-02-01 07:46:00,16.8,10.2,30.05,WNW,294,4.0,12.0,75,0.00,,,0.00,19,Wunderground v.1.15,2013-02-01 12:46:00,
2013-02-01 07:52:00,16.7,10.1,30.05,West,275,5.0,12.0,75,0.00,,,0.00,25,Wunderground v.1.15,2013-02-01 12:52:00,
2013-02-01 07:58:00,16.7,10.4,30.05,SSW,213,6.0,12.0,76,0.00,,,0.00,35,Wunderground v.1.15,2013-02-01 12:58:00,
2013-02-01 08:04:00,16.7,10.4,30.06,WSW,243,4.0,12.0,76,0.00,,,0.00,47,Wunderground v.1.15,2013-02-01 13:04:00,
2013-02-01 08:10:00,16.8,10.2,30.07,West,267,5.0,12.0,75,0.00,,,0.00,60,Wunderground v.1.15,2013-02-01 13:10:00,
2013-02-01 08:16:00,16.9,10.3,30.07,WSW,247,5.0,12.0,75,0.00,,,0.00,58,Wunderground v.1.15,2013-02-01 13:16:00,
2013-02-01 08:22:00,17.0,10.4,30.07,SSW,209,4.0,12.0,75,0.00,,,0.00,63,Wunderground v.1.15,2013-02-01 13:22:00,
2013-02-01 08:28:00,16.9,10.3,30.08,NNW,340,5.0,12.0,75,0.00,,,0.00,70,Wunderground v.1.15,2013-02-01 13:28:00,
2013-02-01 08:34:00,16.9,10.3,30.08,SW,215,6.0,12.0,75,0.00,,,0.00,76,Wunderground v.1.15,2013-02-01 13:34:00,
2013-02-01 08:40:00,16.9,10.6,30.08,SW,228,6.0,6.0,76,0.00,,,0.00,114,Wunderground v.1.15,2013-02-01 13:40:00,
2013-02-01 08:46:00,16.9,10.3,30.09,West,271,6.0,12.0,75,0.00,,,0.00,97,Wunderground v.1.15,2013-02-01 13:46:00,
2013-02-01 08:52:00,17.0,10.4,30.09,WSW,243,5.0,12.0,75,0.00,,,0.00,100,Wunderground v.1.15,2013-02-01 13:52:00,
2013-02-01 08:58:00,17.0,10.4,30.09,WNW,290,5.0,12.0,75,0.00,,,0.00,97,Wunderground v.1.15,2013-02-01 13:58:00,
2013-02-01 09:04:00,17.1,10.5,30.10,NW,318,5.0,12.0,75,0.00,,,0.00,111,Wunderground v.1.15,2013-02-01 14:04:00,
2013-02-01 09:10:00,17.2,10.6,30.10,West,281,7.0,7.0,75,0.00,,,0.00,149,Wunderground v.1.15,2013-02-01 14:10:00,
2013-02-01 09:16:00,17.3,10.4,30.10,SSW,208,5.0,12.0,74,0.00,,,0.00,155,Wunderground v.1.15,2013-02-01 14:16:00,
2013-02-01 09:22:00,17.4,10.2,30.10,NW,321,6.0,12.0,73,0.00,,,0.00,160,Wunderground v.1.15,2013-02-01 14:22:00,
2013-02-01 09:28:00,17.4,9.9,30.10,NW,321,8.0,13.0,72,0.00,,,0.00,128,Wunderground v.1.15,2013-02-01 14:28:00,
2013-02-01 09:34:00,17.5,10.0,30.10,WSW,238,7.0,12.0,72,0.00,,,0.00,204,Wunderground v.1.15,2013-02-01 14:34:00,
2013-02-01 09:40:00,17.7,9.9,30.10,NW,309,6.0,6.0,71,0.00,,,0.00,114,Wunderground v.1.15,2013-02-01 14:40:00,
2013-02-01 09:46:00,17.9,9.4,30.11,West,277,8.0,12.0,69,0.00,,,0.00,141,Wunderground v.1.15,2013-02-01 14:46:00,
2013-02-01 09:52:00,18.1,9.3,30.11,NW,323,8.0,8.0,68,0.00,,,0.00,167,Wunderground v.1.15,2013-02-01 14:52:00,
2013-02-01 09:58:00,18.4,9.6,30.11,SW,223,7.0,12.0,68,0.00,,,0.00,302,Wunderground v.1.15,2013-02-01 14:58:00,
2013-02-01 10:04:00,18.5,9.4,30.12,NNW,338,8.0,12.0,67,0.00,,,0.00,413,Wunderground v.1.15,2013-02-01 15:04:00,
2013-02-01 10:10:00,18.6,9.1,30.12,WNW,285,8.0,23.0,66,0.00,,,0.00,153,Wunderground v.1.15,2013-02-01 15:10:00,
2013-02-01 10:16:00,18.3,8.5,30.12,North,5,9.0,23.0,65,0.00,,,0.00,181,Wunderground v.1.15,2013-02-01 15:16:00,
2013-02-01 10:22:00,18.4,8.9,30.13,WNW,283,9.0,12.0,66,0.00,,,0.00,202,Wunderground v.1.15,2013-02-01 15:22:00,
2013-02-01 10:28:00,18.6,8.8,30.13,WNW,301,8.0,23.0,65,0.00,,,0.00,271,Wunderground v.1.15,2013-02-01 15:28:00,
2013-02-01 10:34:00,18.8,8.6,30.13,West,270,8.0,16.0,64,0.00,,,0.00,181,Wunderground v.1.15,2013-02-01 15:34:00,
2013-02-01 10:40:00,19.1,8.9,30.13,WNW,292,8.0,12.0,64,0.00,,,0.00,643,Wunderground v.1.15,2013-02-01 15:40:00,
2013-02-01 10:46:00,19.5,8.9,30.14,WNW,284,7.0,12.0,63,0.00,,,0.00,241,Wunderground v.1.15,2013-02-01 15:46:00,
2013-02-01 10:52:00,19.4,8.5,30.14,WNW,291,8.0,9.0,62,0.00,,,0.00,192,Wunderground v.1.15,2013-02-01 15:52:00,
2013-02-01 10:58:00,19.2,8.3,30.15,NW,321,9.0,18.0,62,0.00,,,0.00,239,Wunderground v.1.15,2013-02-01 15:58:00,
2013-02-01 11:04:00,19.7,9.5,30.15,SW,218,7.0,12.0,64,0.00,,,0.00,253,Wunderground v.1.15,2013-02-01 16:04:00,
2013-02-01 11:10:00,19.4,8.5,30.15,West,265,7.0,12.0,62,0.00,,,0.00,262,Wunderground v.1.15,2013-02-01 16:10:00,
2013-02-01 11:16:00,19.2,8.3,30.15,NW,310,9.0,12.0,62,0.00,,,0.00,272,Wunderground v.1.15,2013-02-01 16:16:00,
2013-02-01 11:22:00,19.3,8.8,30.16,WNW,287,8.0,12.0,63,0.00,,,0.00,209,Wunderground v.1.15,2013-02-01 16:22:00,
2013-02-01 11:28:00,19.2,8.7,30.16,NW,305,7.0,12.0,63,0.00,,,0.00,232,Wunderground v.1.15,2013-02-01 16:28:00,
2013-02-01 11:34:00,19.5,8.2,30.16,North,360,7.0,12.0,61,0.00,,,0.00,250,Wunderground v.1.15,2013-02-01 16:34:00,
2013-02-01 11:40:00,19.3,8.0,30.16,West,274,9.0,9.0,61,0.00,,,0.00,204,Wunderground v.1.15,2013-02-01 16:40:00,
2013-02-01 11:46:00,19.2,7.9,30.16,WNW,291,9.0,12.0,61,0.00,,,0.00,230,Wunderground v.1.15,2013-02-01 16:46:00,
2013-02-01 11:52:00,19.4,8.1,30.17,NW,326,7.0,12.0,61,0.00,,,0.00,232,Wunderground v.1.15,2013-02-01 16:52:00,
2013-02-01 11:58:00,19.5,7.9,30.16,NW,318,8.0,14.0,60,0.00,,,0.00,234,Wunderground v.1.15,2013-02-01 16:58:00,
2013-02-01 12:04:00,19.4,7.8,30.17,NNE,30,9.0,14.0,60,0.00,,,0.00,248,Wunderground v.1.15,2013-02-01 17:04:00,
2013-02-01 12:10:00,19.7,8.0,30.17,West,259,8.0,8.0,60,0.00,,,0.00,316,Wunderground v.1.15,2013-02-01 17:10:00,
2013-02-01 12:16:00,19.8,7.8,30.17,West,260,9.0,15.0,59,0.00,,,0.00,255,Wunderground v.1.15,2013-02-01 17:16:00,
2013-02-01 12:22:00,19.5,7.9,30.17,SSW,209,9.0,13.0,60,0.00,,,0.00,213,Wunderground v.1.15,2013-02-01 17:22:00,
2013-02-01 12:28:00,19.3,8.0,30.17,NW,311,8.0,15.0,61,0.00,,,0.00,237,Wunderground v.1.15,2013-02-01 17:28:00,
2013-02-01 12:34:00,19.1,8.2,30.18,NW,321,9.0,12.0,62,0.00,,,0.00,223,Wunderground v.1.15,2013-02-01 17:34:00,
2013-02-01 12:40:00,19.2,8.7,30.17,WNW,291,8.0,8.0,63,0.00,,,0.00,174,Wunderground v.1.15,2013-02-01 17:40:00,
2013-02-01 12:46:00,19.2,8.3,30.17,WNW,285,7.0,12.0,62,0.00,,,0.00,197,Wunderground v.1.15,2013-02-01 17:46:00,
2013-02-01 12:52:00,19.2,7.9,30.18,West,280,8.0,12.0,61,0.00,,,0.00,204,Wunderground v.1.15,2013-02-01 17:52:00,
2013-02-01 12:58:00,19.3,7.7,30.18,NW,306,8.0,14.0,60,0.00,,,0.00,257,Wunderground v.1.15,2013-02-01 17:58:00,
2013-02-01 13:04:00,19.5,8.2,30.18,ENE,64,9.0,12.0,61,0.00,,,0.00,234,Wunderground v.1.15,2013-02-01 18:04:00,
2013-02-01 13:10:00,19.7,8.4,30.18,WSW,237,7.0,12.0,61,0.00,,,0.00,584,Wunderground v.1.15,2013-02-01 18:10:00,
2013-02-01 13:16:00,19.7,8.8,30.19,WNW,283,7.0,13.0,62,0.00,,,0.00,171,Wunderground v.1.15,2013-02-01 18:16:00,
2013-02-01 13:22:00,19.0,9.2,30.18,WNW,288,8.0,12.0,65,0.00,,,0.00,197,Wunderground v.1.15,2013-02-01 18:22:00,
2013-02-01 13:28:00,19.3,9.1,30.18,NW,304,7.0,12.0,64,0.00,,,0.00,573,Wunderground v.1.15,2013-02-01 18:28:00,
2013-02-01 13:34:00,19.3,8.8,30.19,SW,216,7.0,12.0,63,0.00,,,0.00,202,Wunderground v.1.15,2013-02-01 18:34:00,
2013-02-01 13:40:00,19.3,9.1,30.19,SW,231,7.0,7.0,64,0.00,,,0.00,169,Wunderground v.1.15,2013-02-01 18:40:00,
2013-02-01 13:46:00,19.4,8.5,30.19,WNW,299,8.0,13.0,62,0.00,,,0.00,283,Wunderground v.1.15,2013-02-01 18:46:00,
2013-02-01 13:52:00,19.8,9.6,30.19,WNW,288,6.0,11.0,64,0.00,,,0.00,272,Wunderground v.1.15,2013-02-01 18:52:00,
2013-02-01 13:58:00,19.4,9.9,30.19,West,271,7.0,14.0,66,0.00,,,0.00,320,Wunderground v.1.15,2013-02-01 18:58:00,
2013-02-01 14:04:00,19.5,9.6,30.19,SW,221,8.0,12.0,65,0.00,,,0.00,267,Wunderground v.1.15,2013-02-01 19:04:00,
2013-02-01 14:10:00,19.9,10.0,30.20,WNW,289,7.0,12.0,65,0.00,,,0.00,357,Wunderground v.1.15,2013-02-01 19:10:00,
2013-02-01 14:16:00,20.1,10.6,30.20,WSW,258,6.0,12.0,66,0.00,,,0.00,455,Wunderground v.1.15,2013-02-01 19:16:00,
2013-02-01 14:22:00,20.3,9.7,30.20,WSW,244,6.0,12.0,63,0.00,,,0.00,185,Wunderground v.1.15,2013-02-01 19:22:00,
2013-02-01 14:28:00,19.9,9.0,30.20,WNW,283,7.0,15.0,62,0.00,,,0.00,304,Wunderground v.1.15,2013-02-01 19:28:00,
2013-02-01 14:34:00,19.8,8.5,30.20,SW,223,10.0,12.0,61,0.00,,,0.00,193,Wunderground v.1.15,2013-02-01 19:34:00,
2013-02-01 14:40:00,19.8,8.1,30.20,WSW,248,8.0,12.0,60,0.00,,,0.00,355,Wunderground v.1.15,2013-02-01 19:40:00,
2013-02-01 14:46:00,19.7,6.9,30.20,WNW,282,9.0,12.0,57,0.00,,,0.00,225,Wunderground v.1.15,2013-02-01 19:46:00,
2013-02-01 14:52:00,19.7,7.3,30.21,West,281,8.0,12.0,58,0.00,,,0.00,292,Wunderground v.1.15,2013-02-01 19:52:00,
2013-02-01 14:58:00,19.8,8.1,30.21,West,269,8.0,12.0,60,0.00,,,0.00,197,Wunderground v.1.15,2013-02-01 19:58:00,
2013-02-01 15:04:00,19.8,9.2,30.22,West,271,7.0,12.0,63,0.00,,,0.00,135,Wunderground v.1.15,2013-02-01 20:04:00,
2013-02-01 15:10:00,19.2,9.4,30.22,WNW,292,7.0,7.0,65,0.00,,,0.00,155,Wunderground v.1.15,2013-02-01 20:10:00,
2013-02-01 15:16:00,18.9,10.7,30.23,WSW,248,6.0,19.0,70,0.00,,,0.00,156,Wunderground v.1.15,2013-02-01 20:16:00,
2013-02-01 15:22:00,18.9,10.4,30.23,SW,229,7.0,7.0,69,0.00,,,0.00,211,Wunderground v.1.15,2013-02-01 20:22:00,
2013-02-01 15:28:00,19.4,10.9,30.23,West,271,6.0,12.0,69,0.00,,,0.00,369,Wunderground v.1.15,2013-02-01 20:28:00,
2013-02-01 15:34:00,19.3,11.1,30.23,NW,305,6.0,12.0,70,0.00,,,0.00,93,Wunderground v.1.15,2013-02-01 20:34:00,
2013-02-01 15:40:00,19.1,11.2,30.23,West,279,6.0,6.0,71,0.00,,,0.00,158,Wunderground v.1.15,2013-02-01 20:40:00,
2013-02-01 15:46:00,18.9,11.7,30.24,NNW,329,6.0,12.0,73,0.00,,,0.00,207,Wunderground v.1.15,2013-02-01 20:46:00,
2013-02-01 15:52:00,19.1,11.6,30.24,WSW,252,7.0,9.0,72,0.00,,,0.00,218,Wunderground v.1.15,2013-02-01 20:52:00,
2013-02-01 15:58:00,18.8,10.9,30.24,WSW,239,7.0,12.0,71,0.00,,,0.00,183,Wunderground v.1.15,2013-02-01 20:58:00,
2013-02-01 16:04:00,19.0,10.8,30.25,SW,234,4.0,12.0,70,0.00,,,0.00,128,Wunderground v.1.15,2013-02-01 21:04:00,
2013-02-01 16:10:00,18.8,10.3,30.25,WSW,257,6.0,12.0,69,0.00,,,0.00,90,Wunderground v.1.15,2013-02-01 21:10:00,
2013-02-01 16:16:00,18.4,10.9,30.25,SSW,204,6.0,12.0,72,0.00,,,0.00,88,Wunderground v.1.15,2013-02-01 21:16:00,
2013-02-01 16:22:00,18.4,10.9,30.25,WNW,288,5.0,14.0,72,0.00,,,0.00,107,Wunderground v.1.15,2013-02-01 21:22:00,
2013-02-01 16:28:00,18.5,10.7,30.26,West,278,6.0,14.0,71,0.00,,,0.00,72,Wunderground v.1.15,2013-02-01 21:28:00,
2013-02-01 16:34:00,18.4,9.6,30.26,WNW,303,6.0,10.0,68,0.00,,,0.00,40,Wunderground v.1.15,2013-02-01 21:34:00,
2013-02-01 16:40:00,18.4,8.9,30.26,WSW,244,7.0,7.0,66,0.00,,,0.00,76,Wunderground v.1.15,2013-02-01 21:40:00,
2013-02-01 16:47:00,18.3,8.8,30.26,WNW,297,6.0,12.0,66,0.00,,,0.00,69,Wunderground v.1.15,2013-02-01 21:47:00,
2013-02-01 16:52:00,18.4,8.2,30.26,WSW,254,7.0,12.0,64,0.00,,,0.00,37,Wunderground v.1.15,2013-02-01 21:52:00,
2013-02-01 16:58:00,18.2,8.1,30.27,WNW,284,6.0,12.0,64,0.00,,,0.00,18,Wunderground v.1.15,2013-02-01 21:58:00,
2013-02-01 17:04:00,17.9,8.1,30.27,NNW,327,5.0,12.0,65,0.00,,,0.00,14,Wunderground v.1.15,2013-02-01 22:04:00,
2013-02-01 17:10:00,17.3,8.9,30.27,WNW,284,5.0,12.0,69,0.00,,,0.00,14,Wunderground v.1.15,2013-02-01 22:10:00,
2013-02-01 17:16:00,17.1,9.0,30.27,WSW,238,5.0,12.0,70,0.00,,,0.00,16,Wunderground v.1.15,2013-02-01 22:16:00,
2013-02-01 17:22:00,17.0,9.5,30.28,WSW,244,4.0,12.0,72,0.00,,,0.00,11,Wunderground v.1.15,2013-02-01 22:22:00,
2013-02-01 17:28:00,16.8,9.3,30.28,SSW,208,3.0,12.0,72,0.00,,,0.00,5,Wunderground v.1.15,2013-02-01 22:28:00,
2013-02-01 17:34:00,16.6,9.1,30.28,West,261,4.0,12.0,72,0.00,,,0.00,0,Wunderground v.1.15,2013-02-01 22:34:00,
2013-02-01 17:40:00,16.4,8.9,30.29,WSW,254,4.0,12.0,72,0.00,,,0.00,0,Wunderground v.1.15,2013-02-01 22:40:00,
2013-02-01 17:46:00,16.4,8.6,30.29,WNW,301,4.0,12.0,71,0.00,,,0.00,0,Wunderground v.1.15,2013-02-01 22:46:00,
2013-02-01 17:52:00,16.2,8.1,30.29,WSW,252,3.0,12.0,70,0.00,,,0.00,0,Wunderground v.1.15,2013-02-01 22:52:00,
2013-02-01 17:58:00,16.1,7.4,30.29,West,264,3.0,12.0,68,0.00,,,0.00,0,Wunderground v.1.15,2013-02-01 22:58:00,
2013-02-01 18:04:00,16.0,7.3,30.30,West,264,4.0,12.0,68,0.00,,,0.00,0,Wunderground v.1.15,2013-02-01 23:04:00,
2013-02-01 18:10:00,15.9,6.9,30.30,WSW,240,4.0,4.0,67,0.00,,,0.00,0,Wunderground v.1.15,2013-02-01 23:10:00,
2013-02-01 18:16:00,15.8,6.8,30.30,NW,309,3.0,12.0,67,0.00,,,0.00,0,Wunderground v.1.15,2013-02-01 23:16:00,
2013-02-01 18:22:00,15.8,6.1,30.31,West,278,3.0,12.0,65,0.00,,,0.00,0,Wunderground v.1.15,2013-02-01 23:22:00,
2013-02-01 18:28:00,15.8,5.8,30.31,West,275,5.0,12.0,64,0.00,,,0.00,0,Wunderground v.1.15,2013-02-01 23:28:00,
2013-02-01 18:34:00,15.7,5.3,30.32,WNW,303,4.0,12.0,63,0.00,,,0.00,0,Wunderground v.1.15,2013-02-01 23:34:00,
2013-02-01 18:40:00,15.5,5.1,30.32,WSW,257,3.0,12.0,63,0.00,,,0.00,0,Wunderground v.1.15,2013-02-01 23:40:00,
2013-02-01 18:46:00,15.5,5.1,30.32,WSW,248,4.0,12.0,63,0.00,,,0.00,0,Wunderground v.1.15,2013-02-01 23:46:00,
2013-02-01 18:52:00,15.4,5.0,30.32,West,268,4.0,12.0,63,0.00,,,0.00,0,Wunderground v.1.15,2013-02-01 23:52:00,
2013-02-01 18:58:00,15.3,4.9,30.33,West,272,4.0,12.0,63,0.00,,,0.00,0,Wunderground v.1.15,2013-02-01 23:58:00,
2013-02-01 19:04:00,15.2,4.9,30.33,SW,222,3.0,12.0,63,0.00,,,0.00,0,Wunderground v.1.15,2013-02-02 00:04:00,
2013-02-01 19:10:00,15.2,5.2,30.33,West,265,4.0,12.0,64,0.00,,,0.00,0,Wunderground v.1.15,2013-02-02 00:10:00,
2013-02-01 19:16:00,15.0,5.3,30.33,West,281,3.0,12.0,65,0.00,,,0.00,0,Wunderground v.1.15,2013-02-02 00:16:00,
2013-02-01 19:22:00,14.9,5.2,30.33,SW,222,3.0,13.0,65,0.00,,,0.00,0,Wunderground v.1.15,2013-02-02 00:22:00,
2013-02-01 19:28:00,14.9,5.6,30.33,SW,224,4.0,13.0,66,0.00,,,0.00,0,Wunderground v.1.15,2013-02-02 00:28:00,
2013-02-01 19:34:00,14.8,5.5,30.34,WNW,294,3.0,12.0,66,0.00,,,0.00,0,Wunderground v.1.15,2013-02-02 00:34:00,
2013-02-01 19:40:00,14.6,5.6,30.34,West,277,2.0,2.0,67,0.00,,,0.00,0,Wunderground v.1.15,2013-02-02 00:40:00,
2013-02-01 19:46:00,14.5,5.5,30.34,WSW,252,3.0,12.0,67,0.00,,,0.00,0,Wunderground v.1.15,2013-02-02 00:46:00,
2013-02-01 19:52:00,14.4,5.8,30.34,West,280,3.0,12.0,68,0.00,,,0.00,0,Wunderground v.1.15,2013-02-02 00:52:00,
2013-02-01 19:58:00,14.4,6.1,30.34,WSW,257,3.0,12.0,69,0.00,,,0.00,0,Wunderground v.1.15,2013-02-02 00:58:00,
2013-02-01 20:04:00,14.3,6.0,30.34,WNW,288,3.0,12.0,69,0.00,,,0.00,0,Wunderground v.1.15,2013-02-02 01:04:00,
2013-02-01 20:10:00,14.3,6.3,30.35,WSW,252,3.0,12.0,70,0.00,,,0.00,0,Wunderground v.1.15,2013-02-02 01:10:00,
2013-02-01 20:16:00,14.2,6.2,30.35,WNW,286,3.0,12.0,70,0.00,,,0.00,0,Wunderground v.1.15,2013-02-02 01:16:00,
2013-02-01 20:22:00,14.3,6.6,30.35,WNW,288,4.0,12.0,71,0.00,,,0.00,0,Wunderground v.1.15,2013-02-02 01:22:00,
2013-02-01 20:28:00,14.2,6.8,30.35,NW,319,4.0,12.0,72,0.00,,,0.00,0,Wunderground v.1.15,2013-02-02 01:28:00,
2013-02-01 20:34:00,14.1,7.0,30.35,West,274,3.0,12.0,73,0.00,,,0.00,0,Wunderground v.1.15,2013-02-02 01:34:00,
2013-02-01 20:40:00,14.0,7.2,30.36,West,267,3.0,12.0,74,0.00,,,0.00,0,Wunderground v.1.15,2013-02-02 01:40:00,
2013-02-01 20:46:00,14.0,7.5,30.36,WSW,258,3.0,12.0,75,0.00,,,0.00,0,Wunderground v.1.15,2013-02-02 01:46:00,
2013-02-01 20:52:00,14.0,7.5,30.36,SW,225,3.0,4.0,75,0.00,,,0.00,0,Wunderground v.1.15,2013-02-02 01:52:00,
2013-02-01 20:58:00,14.0,7.8,30.36,WSW,241,2.0,12.0,76,0.00,,,0.00,0,Wunderground v.1.15,2013-02-02 01:58:00,
2013-02-01 21:04:00,14.0,7.8,30.36,West,281,3.0,12.0,76,0.00,,,0.00,0,Wunderground v.1.15,2013-02-02 02:04:00,
2013-02-01 21:10:00,14.1,7.9,30.36,WNW,284,4.0,4.0,76,0.00,,,0.00,0,Wunderground v.1.15,2013-02-02 02:10:00,
2013-02-01 21:16:00,14.3,8.4,30.36,West,281,3.0,12.0,77,0.00,,,0.00,0,Wunderground v.1.15,2013-02-02 02:16:00,
2013-02-01 21:22:00,14.4,8.5,30.36,West,273,4.0,12.0,77,0.00,,,0.00,0,Wunderground v.1.15,2013-02-02 02:22:00,
2013-02-01 21:28:00,14.5,8.3,30.36,WSW,237,4.0,12.0,76,0.00,,,0.00,0,Wunderground v.1.15,2013-02-02 02:28:00,
2013-02-01 21:34:00,14.5,8.3,30.36,WSW,244,4.0,12.0,76,0.00,,,0.00,0,Wunderground v.1.15,2013-02-02 02:34:00,
2013-02-01 21:40:00,14.4,8.2,30.37,SW,217,3.0,12.0,76,0.00,,,0.00,0,Wunderground v.1.15,2013-02-02 02:40:00,
2013-02-01 21:46:00,14.3,8.1,30.37,West,281,4.0,12.0,76,0.00,,,0.00,0,Wunderground v.1.15,2013-02-02 02:46:00,
2013-02-01 21:52:00,14.3,7.8,30.37,West,261,4.0,12.0,75,0.00,,,0.00,0,Wunderground v.1.15,2013-02-02 02:52:00,
2013-02-01 21:58:00,14.3,7.8,30.37,West,265,5.0,12.0,75,0.00,,,0.00,0,Wunderground v.1.15,2013-02-02 02:58:00,
2013-02-01 22:04:00,14.4,7.9,30.37,West,278,4.0,12.0,75,0.00,,,0.00,0,Wunderground v.1.15,2013-02-02 03:04:00,
2013-02-01 22:10:00,14.4,7.9,30.38,WNW,292,4.0,4.0,75,0.00,,,0.00,0,Wunderground v.1.15,2013-02-02 03:10:00,
2013-02-01 22:16:00,14.4,7.9,30.38,NNE,17,4.0,12.0,75,0.00,,,0.00,0,Wunderground v.1.15,2013-02-02 03:16:00,
2013-02-01 22:22:00,14.4,7.9,30.38,SW,230,5.0,12.0,75,0.00,,,0.00,0,Wunderground v.1.15,2013-02-02 03:22:00,
2013-02-01 22:28:00,14.4,7.6,30.38,WSW,257,5.0,12.0,74,0.00,,,0.00,0,Wunderground v.1.15,2013-02-02 03:28:00,
2013-02-01 22:34:00,14.3,7.8,30.38,WSW,249,4.0,12.0,75,0.00,,,0.00,0,Wunderground v.1.15,2013-02-02 03:34:00,
2013-02-01 22:40:00,14.3,7.8,30.38,SSW,209,4.0,12.0,75,0.00,,,0.00,0,Wunderground v.1.15,2013-02-02 03:40:00,
2013-02-01 22:46:00,14.1,7.3,30.38,West,266,4.0,12.0,74,0.00,,,0.00,0,Wunderground v.1.15,2013-02-02 03:46:00,
2013-02-01 22:52:00,13.7,6.9,30.38,WNW,283,4.0,12.0,74,0.00,,,0.00,0,Wunderground v.1.15,2013-02-02 03:52:00,
2013-02-01 22:58:00,13.5,7.0,30.38,SW,218,3.0,12.0,75,0.00,,,0.00,0,Wunderground v.1.15,2013-02-02 03:58:00,
2013-02-01 23:04:00,13.4,7.0,30.39,WSW,258,4.0,12.0,75,0.00,,,0.00,0,Wunderground v.1.15,2013-02-02 04:04:00,
2013-02-01 23:10:00,13.1,7.0,30.39,WSW,252,4.0,4.0,76,0.00,,,0.00,0,Wunderground v.1.15,2013-02-02 04:10:00,
2013-02-01 23:16:00,12.9,6.8,30.39,SW,229,3.0,12.0,76,0.00,,,0.00,0,Wunderground v.1.15,2013-02-02 04:16:00,
2013-02-01 23:22:00,12.7,6.6,30.38,WSW,244,3.0,12.0,76,0.00,,,0.00,0,Wunderground v.1.15,2013-02-02 04:22:00,
2013-02-01 23:28:00,12.6,6.8,30.38,WNW,290,3.0,12.0,77,0.00,,,0.00,0,Wunderground v.1.15,2013-02-02 04:28:00,
2013-02-01 23:34:00,12.4,6.6,30.39,WNW,293,3.0,12.0,77,0.00,,,0.00,0,Wunderground v.1.15,2013-02-02 04:34:00,
2013-02-01 23:40:00,12.2,6.4,30.39,SSE,167,2.0,2.0,77,0.00,,,0.00,0,Wunderground v.1.15,2013-02-02 04:40:00,
2013-02-01 23:46:00,12.0,6.2,30.38,WSW,238,2.0,12.0,77,0.00,,,0.00,0,Wunderground v.1.15,2013-02-02 04:46:00,
2013-02-01 23:52:00,11.8,6.3,30.39,West,260,2.0,12.0,78,0.00,,,0.00,0,Wunderground v.1.15,2013-02-02 04:52:00,
2013-02-01 23:58:00,11.6,6.1,30.39,WNW,290,1.0,12.0,78,0.00,,,0.00,0,Wunderground v.1.15,2013-02-02 04:58:00,